IT9LCP-2 Weather Reports


time (UTC)temp
C
wind
direction
speed
KPH
gust
KPH
rain 1hr
cm
rain 24hr
cm
rain mn
cm
humidity
%
barometer
mb
20260507175149 16 21 3.2 9.7 0.00 0.00 0.00 89 1011.1
20260507173149 16 359 1.6 4.8 0.00 0.00 0.00 87 1010.9
20260507172149 16 338 3.2 8.0 0.00 0.00 0.00 87 1011.1
20260507171148 16 12 3.2 8.0 0.00 0.00 0.00 88 1011.4
20260507164149 16 354 1.6 4.8 0.00 0.00 0.00 88 1011.6
20260507163149 16 15 3.2 8.0 0.00 0.00 0.00 88 1011.6
20260507162148 16 15 3.2 9.7 0.00 0.00 0.00 88 1011.4
20260507161148 16 7 3.2 9.7 0.00 0.00 0.00 88 1011.4
20260507160148 16 5 3.2 8.0 0.00 0.00 0.00 88 1011.5
20260507155149 16 352 1.6 4.8 0.00 0.00 0.00 87 1011.4
20260507154148 16 358 1.6 4.8 0.00 0.00 0.00 87 1011.6
20260507153148 16 5 1.6 4.8 0.00 0.00 0.00 86 1011.9
20260507151149 16 356 1.6 4.8 0.00 0.00 0.00 86 1011.9
20260507150149 16 9 1.6 4.8 0.00 0.00 0.00 85 1011.9
20260507145148 16 354 1.6 8.0 0.00 0.00 0.00 85 1011.7
20260507144148 16 18 3.2 8.0 0.00 0.00 0.00 85 1011.7
20260507142148 16 7 3.2 8.0 0.00 0.00 0.00 85 1012.2
20260507141148 16 18 3.2 8.0 0.00 0.00 0.00 84 1012.2
20260507140151 16 6 3.2 8.0 0.00 0.00 0.00 84 1012.2
20260507135149 17 5 3.2 8.0 0.00 0.00 0.00 83 1012.6
20260507134148 17 350 1.6 9.7 0.00 0.00 0.00 83 1012.9
20260507133149 17 36 3.2 12.9 0.00 0.00 0.00 83 1012.8
20260507132148 17 52 6.4 14.5 0.00 0.00 0.00 82 1012.6
20260507131149 17 49 4.8 12.9 0.00 0.00 0.00 81 1013.0
20260507130148 17 49 3.2 11.3 0.00 0.00 0.00 79 1013.1
20260507125148 17 43 4.8 11.3 0.00 0.00 0.00 80 1013.5
20260507124151 17 47 3.2 8.0 0.00 0.00 0.00 81 1013.5
20260507123148 17 46 3.2 8.0 0.00 0.00 0.00 81 1013.5
20260507121148 17 35 3.2 12.9 0.00 0.00 0.00 80 1013.5
20260507120148 17 43 3.2 9.7 0.00 0.00 0.00 78 1014.0
20260507115148 17 57 4.8 11.3 0.00 0.00 0.00 79 1014.0
20260507113148 18 53 3.2 11.3 0.00 0.00 0.00 75 1014.1
20260507112148 18 44 4.8 9.7 0.00 0.00 0.00 74 1014.3
20260507110148 18 32 4.8 11.3 0.00 0.00 0.00 72 1014.6
20260507104148 18 40 4.8 19.3 0.00 0.00 0.00 72 1014.8
20260507102148 19 60 3.2 11.3 0.00 0.00 0.00 68 1015.0
20260507101148 18 37 4.8 12.9 0.00 0.00 0.00 68 1014.8
20260507100147 18 45 4.8 11.3 0.00 0.00 0.00 69 1015.1
20260507095149 18 35 4.8 12.9 0.00 0.00 0.00 68 1015.2
20260507094148 18 44 3.2 11.3 0.00 0.00 0.00 67 1015.4
20260507093148 18 63 4.8 11.3 0.00 0.00 0.00 66 1015.1
20260507092148 18 39 3.2 11.3 0.00 0.00 0.00 67 1015.2
20260507091148 18 37 4.8 14.5 0.00 0.00 0.00 68 1015.3
20260507090148 18 34 3.2 12.9 0.00 0.00 0.00 68 1015.5
20260507085148 18 45 3.2 12.9 0.00 0.00 0.00 69 1015.2
20260507084148 18 48 3.2 11.3 0.00 0.00 0.00 72 1015.0
20260507083148 17 42 4.8 11.3 0.00 0.00 0.00 75 1015.2
20260507082148 17 37 3.2 11.3 0.00 0.00 0.00 75 1014.9
20260507081147 17 52 1.6 8.0 0.00 0.00 0.00 74 1014.8
20260507080148 17 33 1.6 11.3 0.00 0.00 0.00 75 1014.9
20260507075148 17 32 3.2 9.7 0.00 0.00 0.00 76 1015.0
20260507073148 17 38 3.2 12.9 0.00 0.00 0.00 79 1015.2
20260507072148 17 57 1.6 8.0 0.00 0.00 0.00 78 1015.2
20260507071149 17 48 3.2 9.7 0.00 0.00 0.00 81 1015.3
20260507070147 16 19 3.2 8.0 0.00 0.00 0.00 84 1015.4
20260507065148 16 33 3.2 8.0 0.00 0.00 0.00 87 1015.5
20260507064148 16 5 3.2 8.0 0.00 0.00 0.00 90 1015.2
20260507063147 16 9 3.2 4.8 0.00 0.00 0.00 92 1015.1
20260507062148 15 8 3.2 8.0 0.00 0.00 0.00 93 1015.0
20260507060148 15 348 1.6 4.8 0.00 0.00 0.00 94 1015.1
20260507054148 15 0 3.2 4.8 0.00 0.00 0.00 96 1015.2
20260507053148 15 356 1.6 9.7 0.00 0.00 0.00 97 1015.3
20260507052148 15 4 3.2 4.8 0.00 0.00 0.00 97 1015.2
20260507051148 15 347 1.6 4.8 0.00 0.00 0.00 97 1015.0
20260507050148 15 343 4.8 12.9 0.00 0.00 0.00 97 1014.8
20260507045147 15 58 3.2 8.0 0.00 0.00 0.00 98 1015.0
20260507044148 14 12 4.8 8.0 0.00 0.00 0.00 97 1014.8
20260507043148 14 75 3.2 8.0 0.00 0.00 0.00 97 1014.7
20260507042148 14 86 3.2 8.0 0.00 0.00 0.00 97 1014.7
20260507040147 14 21 1.6 4.8 0.00 0.00 0.00 97 1014.8
20260507035149 14 312 3.2 11.3 0.00 0.00 0.00 96 1014.8
20260507034148 14 342 3.2 8.0 0.00 0.00 0.00 96 1015.0
20260507032147 14 329 1.6 3.2 0.00 0.00 0.00 96 1014.9
20260507031148 14 342 3.2 4.8 0.00 0.00 0.00 95 1015.3
20260507025148 14 340 3.2 4.8 0.00 0.00 0.00 95 1014.7
20260507024148 15 348 3.2 4.8 0.00 0.00 0.00 94 1014.6
20260507023148 15 345 3.2 4.8 0.00 0.00 0.00 93 1015.0
20260507022148 15 330 1.6 4.8 0.00 0.00 0.00 92 1014.5
20260507021148 15 346 3.2 3.2 0.00 0.00 0.00 89 1014.6
20260507020148 15 7 3.2 4.8 0.00 0.00 0.00 86 1014.3